Wautoma, WI

10:28 PM CDT on October 20, 2017 (GMT -0500)
Wautoma

Weather History for KY50 - November, 2012

Change the Weather History Date:

Sunday, November 18, 2012

  Actual Average (KPCZ) Record (KPCZ)
Temperature  
Mean Temperature 40 °F -  
Max Temperature 55 °F 44 °F 71 °F (1953)
Min Temperature 26 °F 26 °F 5 °F (1959)
Degree Days  
Heating Degree Days 24    
Moisture  
Dew Point 31 °F    
Average Humidity 75    
Maximum Humidity 100    
Minimum Humidity 39    
Precipitation  
Precipitation 0.00 in - - ()
Sea Level Pressure  
Sea Level Pressure 30.35 in    
Wind  
Wind Speed 2 mph (SSE)    
Max Wind Speed 10 mph    
Max Gust Speed -    
Visibility 7 miles    
Events      
Averages and records for this station are not official NWS values.
T = Trace of Precipitation, MM = Missing Value Source: NWS Daily Summary

Daily Weather History Graph

Daily Weather History Graph

Search for Another Location

Airport or City:

Trip Planner

Search our weather history database for the weather conditions in past years. The results will help you decide how hot, cold, wet, or windy it might be!

Date:

Astronomy

Nov. 18, 2012 Rise Set
Actual Time 6:56 AM CST 4:27 PM CST
Civil Twilight 6:25 AM CST 4:59 PM CST
Nautical Twilight 5:50 AM CST 5:34 PM CST
Astronomical Twilight 5:15 AM CST 6:08 PM CST
Moon 11:21 AM CST (11/18) 9:50 PM CST (11/18)
Length of Visible Light 10h 33m
Length of Day
9h 30m
Waxing Crescent, 30% of the Moon is Illuminated
Nov 18
Waxing Crescent
Nov 20
First Quarter
Nov 28
Full
Dec 6
Last Quarter
Dec 13
New

Hourly Weather History & Observations

Time (CST) Temp. Windchill Dew Point Humidity Pressure Visibility Wind Dir Wind Speed Gust Speed Precip Events Conditions
12:56 AM 29.1 °F - 29.1 °F 100% 30.42 in 4.0 mi Calm Calm - N/A   Clear
1:56 AM 29.1 °F - 29.1 °F 100% 30.42 in 4.0 mi Calm Calm - N/A   Clear
2:56 AM 27.1 °F - 27.1 °F 100% 30.41 in 3.0 mi Calm Calm - N/A   Clear
3:35 AM 26.6 °F - 26.6 °F 100% 30.39 in 2.5 mi Calm Calm - N/A   Clear
3:45 AM 26.6 °F - 26.6 °F 100% 30.38 in 3.0 mi Calm Calm - N/A   Clear
3:56 AM 26.1 °F - 26.1 °F 100% 30.40 in 3.0 mi Calm Calm - N/A   Clear
4:56 AM 27.1 °F - 27.1 °F 100% 30.40 in 4.0 mi Calm Calm - N/A   Clear
5:56 AM 26.1 °F - 26.1 °F 100% 30.40 in 4.0 mi Calm Calm - N/A   Clear
6:56 AM 27.1 °F - 27.1 °F 100% 30.40 in 4.0 mi Calm Calm - N/A   Clear
7:18 AM 26.6 °F - 26.6 °F 100% 30.37 in 2.5 mi Calm Calm - N/A   Clear
7:56 AM 31.1 °F - 31.1 °F 100% 30.39 in 2.0 mi Calm Calm - N/A   Clear
8:10 AM 35.6 °F - 33.8 °F 93% 30.37 in 3.0 mi Calm Calm - N/A   Clear
8:56 AM 36.9 °F - 32.9 °F 86% 30.39 in 4.0 mi Calm Calm - N/A   Clear
9:56 AM 45.0 °F 40.1 °F 32.9 °F 63% 30.37 in 8.0 mi South 9.2 mph - N/A   Clear
10:56 AM 48.9 °F - 34.0 °F 56% 30.36 in 10.0 mi SSE 9.2 mph - N/A   Clear
11:56 AM 52.9 °F - 32.0 °F 45% 30.33 in 10.0 mi SSE 8.1 mph - N/A   Clear
12:56 PM 55.9 °F - 32.0 °F 40% 30.32 in 10.0 mi SSE 8.1 mph - N/A   Clear
1:56 PM 55.9 °F - 31.1 °F 39% 30.30 in 10.0 mi South 10.4 mph - N/A   Clear
2:56 PM 54.9 °F - 32.0 °F 42% 30.29 in 10.0 mi SSE 9.2 mph - N/A   Clear
3:56 PM 52.0 °F - 32.9 °F 48% 30.30 in 10.0 mi SE 8.1 mph - N/A   Clear
4:56 PM 47.8 °F - 32.0 °F 54% 30.30 in 10.0 mi SE 5.8 mph - N/A   Clear
5:56 PM 46.9 °F - 31.1 °F 54% 30.30 in 10.0 mi Calm Calm - N/A   Clear
6:56 PM 45.0 °F - 31.1 °F 58% 30.31 in 10.0 mi Calm Calm - N/A   Clear
7:56 PM 45.0 °F - 32.0 °F 60% 30.30 in 10.0 mi Calm Calm - N/A   Clear
8:56 PM 43.0 °F - 32.9 °F 68% 30.29 in 10.0 mi Calm Calm - N/A   Clear
9:56 PM 43.9 °F - 34.0 °F 68% 30.29 in 10.0 mi Calm Calm - N/A   Partly Cloudy
10:56 PM 43.9 °F - 34.0 °F 68% 30.28 in 10.0 mi Calm Calm - N/A   Clear
11:56 PM 43.0 °F - 34.0 °F 71% 30.27 in 10.0 mi Calm Calm - N/A   Clear